Find Starlink 6368

NORAD ID: 57234 Int'l Des: 2023-094 Owner: SPXS Country: US Constellation: starlink operational
LEOCIRCULAR

Live Position

Loading 3D Globe...

About Starlink 6368

Description loading...

Upcoming Passes

Passes for default location (London). Set your location on the main map for personalized predictions.

Altitude History

Loading altitude history...

Two-Line Element Set

1 57234U 23094S 26121.87770915 -.00000148 00000-0 41432-5 0 9998
2 57234 43.0022 90.0107 0000755 268.9665 91.1100 15.27575234155251
Epoch: May 1, 2026 • Age: 7 hours

Current Status

Altitude 483.2 km
Velocity 7.63 km/s
Sub-Earth Point 24.34°N, 40.01°W
Launch Date Jul 7, 2023
Age 2.8 years
Type internet

Technical Details

Classification Payload
Mass 305.00 kg
Dry Mass 290.00 kg
Total Mass 305.00 kg
Length 0.20 m
Diameter 2.80 m
Span 9.00 m
Shape Box + pan
Manufacturer SPXS
Bus Type Starlink
Phase Status In Orbit
Owner/State SPXS/US

Most Searched